status,avgMeasuredTime,avgSpeed,extID,medianMeasuredTime,TIMESTAMP,vehicleCount,_id,REPORT_ID
OK,104,17,935,104,2014-08-01T08:00:00,5,20746990,185025
OK,78,23,935,78,2014-08-01T08:05:00,5,20747439,185025
OK,88,20,935,88,2014-08-01T08:10:00,2,20747812,185025
OK,73,25,935,73,2014-08-01T08:15:00,2,20748261,185025
OK,44,41,935,44,2014-08-01T08:20:00,3,20748710,185025
OK,65,28,935,65,2014-08-01T08:25:00,2,20749159,185025
OK,44,41,935,44,2014-08-01T08:30:00,0,20749608,185025
OK,76,24,935,76,2014-08-01T08:35:00,2,20750057,185025
OK,72,25,935,72,2014-08-01T08:40:00,4,20750506,185025
OK,57,32,935,57,2014-08-01T08:45:00,2,20750955,185025
OK,83,22,935,83,2014-08-01T08:50:00,1,20751404,185025
OK,83,22,935,83,2014-08-01T08:55:00,1,20751853,185025
OK,83,22,935,83,2014-08-01T09:00:00,0,20752302,185025
OK,83,22,935,83,2014-08-01T09:05:00,0,20752751,185025
OK,83,22,935,83,2014-08-01T09:10:00,0,20753200,185025
OK,107,17,935,107,2014-08-01T09:20:00,1,20754098,185025
OK,107,17,935,107,2014-08-01T09:25:00,1,20754547,185025
OK,79,23,935,79,2014-08-01T09:30:00,3,20754996,185025
OK,63,29,935,63,2014-08-01T09:35:00,2,20755445,185025
OK,52,35,935,52,2014-08-01T09:40:00,4,20755894,185025
OK,53,34,935,53,2014-08-01T09:45:00,7,20756343,185025
OK,53,34,935,53,2014-08-01T09:50:00,3,20756792,185025
OK,69,26,935,69,2014-08-01T09:55:00,0,20757241,185025
OK,69,26,935,69,2014-08-01T10:00:00,0,20757690,185025
OK,119,15,935,119,2014-08-01T10:05:00,1,20758139,185025
OK,80,22,935,80,2014-08-01T10:10:00,3,20758588,185025
OK,79,23,935,79,2014-08-01T10:15:00,2,20759037,185025
OK,95,19,935,95,2014-08-01T10:20:00,1,20759486,185025
OK,102,17,935,102,2014-08-01T10:25:00,2,20759935,185025
OK,110,16,935,110,2014-08-01T10:30:00,1,20760384,185025
OK,140,13,935,140,2014-08-01T10:35:00,1,20760833,185025
OK,140,13,935,140,2014-08-01T10:40:00,1,20761282,185025
OK,140,13,935,140,2014-08-01T10:45:00,0,20761731,185025
OK,140,13,935,140,2014-08-01T10:50:00,0,20762180,185025
OK,140,13,935,140,2014-08-01T10:55:00,0,20762629,185025
OK,73,25,935,73,2014-08-01T11:00:00,1,20763078,185025
OK,73,25,935,73,2014-08-01T11:05:00,1,20763527,185025
OK,65,28,935,65,2014-08-01T11:10:00,1,20763976,185025
OK,65,28,935,65,2014-08-01T11:15:00,1,20764424,185025
OK,65,28,935,65,2014-08-01T11:20:00,0,20764873,185025
OK,42,43,935,42,2014-08-01T11:25:00,1,20765322,185025
OK,42,43,935,42,2014-08-01T11:30:00,0,20765771,185025
OK,42,43,935,42,2014-08-01T11:35:00,0,20766220,185025
OK,42,43,935,42,2014-08-01T11:40:00,0,20766669,185025
OK,42,43,935,42,2014-08-01T11:45:00,0,20767118,185025
OK,42,43,935,42,2014-08-01T11:50:00,0,20767567,185025
OK,43,42,935,43,2014-08-01T11:55:00,1,20768016,185025
OK,48,38,935,48,2014-08-01T12:00:00,2,20768465,185025
OK,63,29,935,63,2014-08-01T12:05:00,2,20768914,185025
OK,77,23,935,77,2014-08-01T12:10:00,2,20769363,185025
OK,101,18,935,101,2014-08-01T12:15:00,2,20769812,185025
OK,83,22,935,83,2014-08-01T12:20:00,2,20770261,185025
OK,45,40,935,45,2014-08-01T12:25:00,1,20770710,185025
OK,45,40,935,45,2014-08-01T12:30:00,0,20771159,185025
OK,105,17,935,105,2014-08-01T12:35:00,1,20771608,185025
OK,89,20,935,89,2014-08-01T12:40:00,4,20772057,185025
OK,42,43,935,42,2014-08-01T12:45:00,2,20772506,185025
OK,67,27,935,67,2014-08-01T12:50:00,2,20772955,185025
OK,88,20,935,88,2014-08-01T12:55:00,1,20773404,185025
OK,119,15,935,119,2014-08-01T13:00:00,1,20773853,185025
OK,59,31,935,59,2014-08-01T13:05:00,1,20774302,185025
OK,50,36,935,50,2014-08-01T13:10:00,2,20774751,185025
OK,41,44,935,41,2014-08-01T13:15:00,1,20775200,185025
OK,41,44,935,41,2014-08-01T13:20:00,0,20775649,185025
OK,41,44,935,41,2014-08-01T13:25:00,0,20776098,185025
OK,33,55,935,33,2014-08-01T13:30:00,1,20776547,185025
OK,33,55,935,33,2014-08-01T13:35:00,1,20776996,185025
OK,33,55,935,33,2014-08-01T13:40:00,0,20777445,185025
OK,33,55,935,33,2014-08-01T13:45:00,0,20777894,185025
OK,66,27,935,66,2014-08-01T13:50:00,1,20778343,185025
OK,42,43,935,42,2014-08-01T14:00:00,1,20779241,185025
OK,69,26,935,69,2014-08-01T14:05:00,2,20779690,185025
OK,97,18,935,97,2014-08-01T14:10:00,1,20780139,185025
OK,97,18,935,97,2014-08-01T14:15:00,0,20780588,185025
OK,97,18,935,97,2014-08-01T14:20:00,0,20781037,185025
OK,97,18,935,97,2014-08-01T14:25:00,0,20781486,185025
OK,97,18,935,97,2014-08-01T14:30:00,0,20781935,185025
OK,81,22,935,81,2014-08-01T14:35:00,1,20782384,185025
OK,62,29,935,62,2014-08-01T14:40:00,2,20782833,185025
OK,49,37,935,49,2014-08-01T14:45:00,3,20783282,185025
OK,50,36,935,50,2014-08-01T14:50:00,2,20783731,185025
OK,50,36,935,50,2014-08-01T14:55:00,0,20784180,185025
OK,50,36,935,50,2014-08-01T15:00:00,0,20784629,185025
OK,50,36,935,50,2014-08-01T15:05:00,0,20785078,185025
OK,67,27,935,67,2014-08-01T15:10:00,2,20785527,185025
OK,43,42,935,43,2014-08-01T15:15:00,1,20785976,185025
OK,43,42,935,43,2014-08-01T15:20:00,0,20786425,185025
OK,43,42,935,43,2014-08-01T15:25:00,0,20786874,185025
OK,67,27,935,67,2014-08-01T15:30:00,2,20787323,185025
OK,50,36,935,50,2014-08-01T15:35:00,1,20787772,185025
OK,102,17,935,102,2014-08-01T15:40:00,1,20788221,185025
OK,102,17,935,102,2014-08-01T15:45:00,1,20788670,185025
OK,102,17,935,102,2014-08-01T15:50:00,0,20789119,185025
OK,102,17,935,102,2014-08-01T15:55:00,0,20789568,185025
OK,102,17,935,102,2014-08-01T16:00:00,0,20790017,185025
OK,102,17,935,102,2014-08-01T16:05:00,0,20790466,185025
OK,102,17,935,102,2014-08-01T16:10:00,0,20790915,185025
OK,102,17,935,102,2014-08-01T16:15:00,0,20791364,185025
OK,45,40,935,45,2014-08-01T16:20:00,2,20791813,185025
OK,40,45,935,40,2014-08-01T16:25:00,1,20792262,185025
OK,40,45,935,40,2014-08-01T16:30:00,0,20792711,185025
OK,40,45,935,40,2014-08-01T16:35:00,0,20793160,185025
OK,77,23,935,77,2014-08-01T16:40:00,2,20793609,185025
OK,77,23,935,77,2014-08-01T16:45:00,2,20794058,185025
OK,77,23,935,77,2014-08-01T16:50:00,0,20794507,185025
OK,77,23,935,77,2014-08-01T16:55:00,0,20794956,185025
OK,77,23,935,77,2014-08-01T17:00:00,0,20795405,185025
OK,77,23,935,77,2014-08-01T17:05:00,0,20795854,185025
OK,77,23,935,77,2014-08-01T17:10:00,0,20796303,185025
OK,77,23,935,77,2014-08-01T17:15:00,0,20796752,185025
OK,75,24,935,75,2014-08-01T17:20:00,1,20797201,185025
OK,75,24,935,75,2014-08-01T17:25:00,1,20797650,185025
OK,75,24,935,75,2014-08-01T17:30:00,0,20798099,185025
OK,72,25,935,72,2014-08-01T17:35:00,1,20798548,185025
OK,72,25,935,72,2014-08-01T17:40:00,1,20798997,185025
OK,72,25,935,72,2014-08-01T17:45:00,0,20799446,185025
OK,72,25,935,72,2014-08-01T17:50:00,0,20799895,185025
OK,114,16,935,114,2014-08-01T17:55:00,1,20800344,185025
OK,114,16,935,114,2014-08-01T18:00:00,1,20800793,185025
OK,72,25,935,72,2014-08-01T18:05:00,0,20801242,185025
OK,72,25,935,72,2014-08-01T18:10:00,0,20801691,185025
OK,72,25,935,72,2014-08-01T18:15:00,0,20802140,185025
OK,42,43,935,42,2014-08-01T18:20:00,1,20802589,185025
OK,54,33,935,54,2014-08-01T18:25:00,2,20803038,185025
OK,66,27,935,66,2014-08-01T18:30:00,1,20803487,185025
OK,72,25,935,72,2014-08-01T18:35:00,1,20803936,185025
OK,72,25,935,72,2014-08-01T18:40:00,1,20804385,185025
OK,72,25,935,72,2014-08-01T18:45:00,0,20804834,185025
OK,72,25,935,72,2014-08-01T18:50:00,0,20805283,185025
OK,72,25,935,72,2014-08-01T18:55:00,0,20805732,185025
OK,72,25,935,72,2014-08-01T19:00:00,0,20806181,185025
OK,72,25,935,72,2014-08-01T19:05:00,0,20806630,185025
OK,156,11,935,156,2014-08-01T19:10:00,1,20807079,185025
OK,156,11,935,156,2014-08-01T19:15:00,1,20807528,185025
OK,156,11,935,156,2014-08-01T19:20:00,0,20807977,185025
OK,156,11,935,156,2014-08-01T19:25:00,0,20808426,185025
OK,156,11,935,156,2014-08-01T19:30:00,0,20808875,185025
OK,72,25,935,72,2014-08-01T19:35:00,2,20809324,185025
OK,72,25,935,72,2014-08-01T19:40:00,2,20809773,185025
OK,47,38,935,47,2014-08-01T19:45:00,0,20810222,185025
OK,47,38,935,47,2014-08-01T19:50:00,0,20810671,185025
OK,47,38,935,47,2014-08-01T19:55:00,0,20811120,185025
OK,47,38,935,47,2014-08-01T22:00:00,0,20816849,185025
OK,47,38,935,47,2014-08-01T22:05:00,0,20817288,185025
OK,102,17,935,102,2014-08-02T00:00:00,0,20823288,185025
OK,110,16,935,110,2014-08-02T00:05:00,1,20823737,185025
OK,102,17,935,102,2014-08-02T00:10:00,0,20824186,185025
OK,109,16,935,109,2014-08-02T00:15:00,0,20824635,185025
OK,109,16,935,109,2014-08-02T00:20:00,0,20825084,185025
OK,109,16,935,109,2014-08-02T00:25:00,0,20825533,185025
OK,109,16,935,109,2014-08-02T00:30:00,0,20825982,185025
OK,109,16,935,109,2014-08-02T00:35:00,0,20826431,185025
OK,109,16,935,109,2014-08-02T00:40:00,0,20826880,185025
OK,109,16,935,109,2014-08-02T00:45:00,0,20827329,185025
OK,109,16,935,109,2014-08-02T00:50:00,0,20827778,185025
OK,109,16,935,109,2014-08-02T00:55:00,0,20828227,185025
OK,109,16,935,109,2014-08-02T01:00:00,0,20828676,185025
OK,109,16,935,109,2014-08-02T01:05:00,0,20829125,185025
OK,109,16,935,109,2014-08-02T01:10:00,0,20829574,185025
OK,100,18,935,100,2014-08-02T01:15:00,1,20830023,185025
OK,100,18,935,100,2014-08-02T01:20:00,1,20830472,185025
OK,100,18,935,100,2014-08-02T01:25:00,0,20830921,185025
OK,100,18,935,100,2014-08-02T01:30:00,0,20831370,185025
OK,100,18,935,100,2014-08-02T01:35:00,0,20831819,185025
OK,100,18,935,100,2014-08-02T01:40:00,0,20832268,185025
OK,100,18,935,100,2014-08-02T01:45:00,0,20832717,185025
OK,100,18,935,100,2014-08-02T01:50:00,0,20833166,185025
OK,100,18,935,100,2014-08-02T01:55:00,0,20833615,185025
OK,92,19,935,92,2014-08-02T02:00:00,1,20834064,185025
OK,92,19,935,92,2014-08-02T02:05:00,0,20834513,185025
OK,92,19,935,92,2014-08-02T02:10:00,0,20834962,185025
OK,92,19,935,92,2014-08-02T02:15:00,0,20835411,185025
OK,92,19,935,92,2014-08-02T02:20:00,0,20835860,185025
OK,92,19,935,92,2014-08-02T02:25:00,0,20836309,185025
OK,92,19,935,92,2014-08-02T02:30:00,0,20836758,185025
OK,92,19,935,92,2014-08-02T02:35:00,0,20837207,185025
OK,92,19,935,92,2014-08-02T02:40:00,0,20837656,185025
OK,92,19,935,92,2014-08-02T02:45:00,0,20838105,185025
OK,92,19,935,92,2014-08-02T02:50:00,0,20838554,185025
OK,92,19,935,92,2014-08-02T02:55:00,0,20839003,185025
OK,92,19,935,92,2014-08-02T03:00:00,0,20839452,185025
OK,92,19,935,92,2014-08-02T03:05:00,0,20839901,185025
OK,92,19,935,92,2014-08-02T03:10:00,0,20840350,185025
OK,92,19,935,92,2014-08-02T03:15:00,0,20840799,185025
OK,92,19,935,92,2014-08-02T03:20:00,0,20841248,185025
OK,92,19,935,92,2014-08-02T03:25:00,0,20841697,185025
OK,92,19,935,92,2014-08-02T03:30:00,0,20842146,185025
OK,92,19,935,92,2014-08-02T03:35:00,0,20842595,185025
OK,126,14,935,126,2014-08-02T03:40:00,2,20843044,185025
OK,126,14,935,126,2014-08-02T03:45:00,2,20843493,185025
OK,134,13,935,134,2014-08-02T03:50:00,0,20843942,185025
OK,134,13,935,134,2014-08-02T03:55:00,0,20844391,185025
OK,48,38,935,48,2014-08-02T06:00:00,0,20851845,185025
OK,48,38,935,48,2014-08-02T06:05:00,0,20852294,185025
OK,48,38,935,48,2014-08-02T06:10:00,0,20852743,185025
OK,48,38,935,48,2014-08-02T06:15:00,0,20853192,185025
OK,48,38,935,48,2014-08-02T06:20:00,0,20853641,185025
OK,48,38,935,48,2014-08-02T06:25:00,0,20854090,185025
OK,48,38,935,48,2014-08-02T06:30:00,0,20854539,185025
OK,48,38,935,48,2014-08-02T06:35:00,0,20854988,185025
OK,48,38,935,48,2014-08-02T06:40:00,0,20855437,185025
OK,48,38,935,48,2014-08-02T06:45:00,0,20855886,185025
OK,48,38,935,48,2014-08-02T06:50:00,0,20856335,185025
OK,75,24,935,75,2014-08-02T06:55:00,2,20856784,185025
OK,75,24,935,75,2014-08-02T07:00:00,2,20857233,185025
OK,75,24,935,75,2014-08-02T07:05:00,0,20857682,185025
OK,64,28,935,64,2014-08-02T07:10:00,1,20858131,185025
OK,64,28,935,64,2014-08-02T07:15:00,0,20858580,185025
OK,64,28,935,64,2014-08-02T07:20:00,0,20859029,185025
OK,64,28,935,64,2014-08-02T07:25:00,0,20859478,185025
OK,64,28,935,64,2014-08-02T07:30:00,0,20859927,185025
OK,81,22,935,81,2014-08-02T07:35:00,1,20860376,185025
OK,81,22,935,81,2014-08-02T07:40:00,0,20860825,185025
OK,81,22,935,81,2014-08-02T07:45:00,0,20861274,185025
OK,81,22,935,81,2014-08-02T07:50:00,0,20861723,185025
OK,107,17,935,107,2014-08-02T07:55:00,1,20862172,185025
OK,107,17,935,107,2014-08-02T08:00:00,1,20862621,185025
OK,54,33,935,54,2014-08-02T08:05:00,3,20863070,185025
OK,55,33,935,55,2014-08-02T08:10:00,4,20863519,185025
OK,56,32,935,56,2014-08-02T08:15:00,0,20863968,185025
OK,56,32,935,56,2014-08-02T08:20:00,0,20864417,185025
OK,56,32,935,56,2014-08-02T08:25:00,0,20864866,185025
OK,56,32,935,56,2014-08-02T08:30:00,0,20865315,185025
OK,48,38,935,48,2014-08-02T08:35:00,1,20865764,185025
OK,48,38,935,48,2014-08-02T08:40:00,1,20866213,185025
OK,48,38,935,48,2014-08-02T08:45:00,0,20866662,185025
OK,42,43,935,42,2014-08-02T08:50:00,1,20867111,185025
OK,80,22,935,80,2014-08-02T08:55:00,1,20867560,185025
OK,80,22,935,80,2014-08-02T09:00:00,1,20868009,185025
OK,54,33,935,54,2014-08-02T09:05:00,2,20868458,185025
OK,56,32,935,56,2014-08-02T09:10:00,3,20868907,185025
OK,57,32,935,57,2014-08-02T09:15:00,0,20869356,185025
OK,57,32,935,57,2014-08-02T09:20:00,0,20869805,185025
OK,57,32,935,57,2014-08-02T09:25:00,0,20870254,185025
OK,75,24,935,75,2014-08-02T09:30:00,1,20870703,185025
OK,75,24,935,75,2014-08-02T09:35:00,1,20871152,185025
OK,75,24,935,75,2014-08-02T09:40:00,0,20871601,185025
OK,75,24,935,75,2014-08-02T09:45:00,0,20872050,185025
OK,75,24,935,75,2014-08-02T09:50:00,0,20872499,185025
OK,75,24,935,75,2014-08-02T09:55:00,0,20872948,185025
OK,36,50,935,36,2014-08-02T10:00:00,1,20873397,185025
OK,36,50,935,36,2014-08-02T10:05:00,1,20873846,185025
OK,72,25,935,72,2014-08-02T10:10:00,1,20874295,185025
OK,58,31,935,58,2014-08-02T10:15:00,2,20874744,185025
OK,45,40,935,45,2014-08-02T10:20:00,1,20875193,185025
OK,40,45,935,40,2014-08-02T10:25:00,1,20875642,185025
OK,40,45,935,40,2014-08-02T10:30:00,1,20876091,185025
OK,40,45,935,40,2014-08-02T10:35:00,0,20876540,185025
OK,40,45,935,40,2014-08-02T10:40:00,0,20876989,185025
OK,95,19,935,95,2014-08-02T10:45:00,1,20877438,185025
OK,85,21,935,85,2014-08-02T10:50:00,2,20877887,185025
OK,76,24,935,76,2014-08-02T10:55:00,1,20878336,185025
OK,50,36,935,50,2014-08-02T11:00:00,1,20878785,185025
OK,50,36,935,50,2014-08-02T11:05:00,1,20879234,185025
OK,44,41,935,44,2014-08-02T11:10:00,1,20879683,185025
OK,44,41,935,44,2014-08-02T11:15:00,1,20880132,185025
OK,44,41,935,44,2014-08-02T11:20:00,0,20880581,185025
OK,44,41,935,44,2014-08-02T11:25:00,0,20881030,185025
OK,44,41,935,44,2014-08-02T11:30:00,0,20881479,185025
OK,44,41,935,44,2014-08-02T11:35:00,0,20881928,185025
OK,44,41,935,44,2014-08-02T11:40:00,0,20882377,185025
OK,44,41,935,44,2014-08-02T11:45:00,0,20882826,185025
OK,44,41,935,44,2014-08-02T11:50:00,0,20883275,185025
OK,44,41,935,44,2014-08-02T11:55:00,0,20883724,185025
OK,44,41,935,44,2014-08-02T12:00:00,0,20884173,185025
OK,44,41,935,44,2014-08-02T12:05:00,0,20884622,185025
OK,44,41,935,44,2014-08-02T12:10:00,0,20885071,185025
OK,88,20,935,88,2014-08-02T12:15:00,2,20885520,185025
OK,69,26,935,69,2014-08-02T12:20:00,2,20885969,185025
OK,79,23,935,79,2014-08-02T12:25:00,1,20886418,185025
OK,79,23,935,79,2014-08-02T12:30:00,0,20886867,185025
OK,79,23,935,79,2014-08-02T12:35:00,0,20887316,185025
OK,79,23,935,79,2014-08-02T12:40:00,0,20887765,185025
OK,79,23,935,79,2014-08-02T12:45:00,0,20888214,185025
OK,79,23,935,79,2014-08-02T12:50:00,0,20888663,185025
OK,39,46,935,39,2014-08-02T12:55:00,1,20889112,185025
OK,39,46,935,39,2014-08-02T13:00:00,1,20889561,185025
OK,39,46,935,39,2014-08-02T13:05:00,0,20890010,185025
OK,38,48,935,38,2014-08-02T13:10:00,1,20890459,185025
OK,38,48,935,38,2014-08-02T13:15:00,1,20890908,185025
OK,38,48,935,38,2014-08-02T13:20:00,0,20891357,185025
OK,38,48,935,38,2014-08-02T13:25:00,1,20891806,185025
OK,41,44,935,41,2014-08-02T13:30:00,3,20892255,185025
OK,88,20,935,88,2014-08-02T13:35:00,2,20892704,185025
OK,37,49,935,37,2014-08-02T13:40:00,1,20893153,185025
OK,48,38,935,48,2014-08-02T13:45:00,3,20893602,185025
OK,60,30,935,60,2014-08-02T13:50:00,3,20894051,185025
OK,74,24,935,74,2014-08-02T13:55:00,1,20894500,185025
OK,74,24,935,74,2014-08-02T14:00:00,0,20894949,185025
OK,74,24,935,74,2014-08-02T14:05:00,0,20895398,185025
OK,74,24,935,74,2014-08-02T14:10:00,0,20895847,185025
OK,86,21,935,86,2014-08-02T14:15:00,1,20896296,185025
OK,86,21,935,86,2014-08-02T14:20:00,1,20896745,185025
OK,86,21,935,86,2014-08-02T14:25:00,0,20897194,185025
OK,86,21,935,86,2014-08-02T14:30:00,0,20897643,185025
OK,86,21,935,86,2014-08-02T14:35:00,0,20898092,185025
OK,86,21,935,86,2014-08-02T14:40:00,0,20898541,185025
OK,54,33,935,54,2014-08-02T14:45:00,1,20898990,185025
OK,54,33,935,54,2014-08-02T14:50:00,1,20899439,185025
OK,54,33,935,54,2014-08-02T14:55:00,0,20899888,185025
OK,54,33,935,54,2014-08-02T15:00:00,0,20900337,185025
OK,54,33,935,54,2014-08-02T15:05:00,0,20900786,185025
OK,54,33,935,54,2014-08-02T15:10:00,0,20901235,185025
OK,54,33,935,54,2014-08-02T15:15:00,0,20901684,185025
OK,54,33,935,54,2014-08-02T15:20:00,0,20902133,185025
OK,54,33,935,54,2014-08-02T15:25:00,0,20902582,185025
OK,54,33,935,54,2014-08-02T15:30:00,0,20903031,185025
OK,54,33,935,54,2014-08-02T15:35:00,0,20903480,185025
OK,47,38,935,47,2014-08-02T15:40:00,1,20903929,185025
OK,47,38,935,47,2014-08-02T15:45:00,1,20904378,185025
OK,47,38,935,47,2014-08-02T15:50:00,0,20904827,185025
OK,74,24,935,74,2014-08-02T15:55:00,3,20905276,185025
OK,74,24,935,74,2014-08-02T16:00:00,3,20905725,185025
OK,74,24,935,74,2014-08-02T16:05:00,0,20906174,185025
OK,74,24,935,74,2014-08-02T16:10:00,0,20906623,185025
OK,74,24,935,74,2014-08-02T16:15:00,0,20907072,185025
OK,70,26,935,70,2014-08-02T16:20:00,1,20907521,185025
OK,70,26,935,70,2014-08-02T16:25:00,1,20907970,185025
OK,112,16,935,112,2014-08-02T16:30:00,1,20908419,185025
OK,112,16,935,112,2014-08-02T16:35:00,0,20908868,185025
OK,33,55,935,33,2014-08-02T16:40:00,1,20909317,185025
OK,33,55,935,33,2014-08-02T16:45:00,1,20909766,185025
OK,33,55,935,33,2014-08-02T16:50:00,0,20910215,185025
OK,33,55,935,33,2014-08-02T16:55:00,0,20910664,185025
OK,33,55,935,33,2014-08-02T17:00:00,0,20911113,185025
OK,33,55,935,33,2014-08-02T17:05:00,0,20911562,185025
OK,33,55,935,33,2014-08-02T17:10:00,0,20912011,185025
OK,33,55,935,33,2014-08-02T17:15:00,0,20912460,185025
OK,61,30,935,61,2014-08-02T17:20:00,1,20912909,185025
OK,53,34,935,53,2014-08-02T17:25:00,2,20913358,185025
OK,45,40,935,45,2014-08-02T17:30:00,1,20913807,185025
OK,45,40,935,45,2014-08-02T17:35:00,0,20914256,185025
OK,45,40,935,45,2014-08-02T17:40:00,0,20914705,185025
OK,45,40,935,45,2014-08-02T17:45:00,0,20915154,185025
OK,45,40,935,45,2014-08-02T17:50:00,0,20915603,185025
OK,45,40,935,45,2014-08-02T17:55:00,0,20916052,185025
OK,45,40,935,45,2014-08-02T18:00:00,0,20916501,185025
OK,45,40,935,45,2014-08-02T18:05:00,0,20916950,185025
OK,45,40,935,45,2014-08-02T18:10:00,0,20917399,185025
OK,45,40,935,45,2014-08-02T18:15:00,0,20917848,185025
OK,45,40,935,45,2014-08-02T18:20:00,0,20918297,185025
OK,45,40,935,45,2014-08-02T18:25:00,0,20918746,185025
OK,45,40,935,45,2014-08-02T18:30:00,0,20919195,185025
OK,45,40,935,45,2014-08-02T18:35:00,0,20919644,185025
OK,45,40,935,45,2014-08-02T18:40:00,0,20920093,185025
OK,45,40,935,45,2014-08-02T18:45:00,0,20920542,185025
OK,45,40,935,45,2014-08-02T18:50:00,0,20920991,185025
OK,109,16,935,109,2014-08-02T18:55:00,2,20921440,185025
OK,109,16,935,109,2014-08-02T19:00:00,0,20921889,185025
OK,109,16,935,109,2014-08-02T19:05:00,0,20922338,185025
OK,109,16,935,109,2014-08-02T19:10:00,0,20922787,185025
OK,109,16,935,109,2014-08-02T19:15:00,0,20923236,185025
OK,109,16,935,109,2014-08-02T19:20:00,0,20923685,185025
OK,48,38,935,48,2014-08-02T19:25:00,1,20924134,185025
OK,48,38,935,48,2014-08-02T19:30:00,1,20924583,185025
OK,48,38,935,48,2014-08-02T19:35:00,0,20925032,185025
OK,48,38,935,48,2014-08-02T19:40:00,0,20925481,185025
OK,48,38,935,48,2014-08-02T19:45:00,0,20925930,185025
OK,48,38,935,48,2014-08-02T19:50:00,0,20926379,185025
OK,48,38,935,48,2014-08-02T19:55:00,0,20926828,185025
OK,136,13,935,136,2014-08-02T20:00:00,1,20927277,185025
OK,87,21,935,87,2014-08-02T20:05:00,2,20927726,185025
OK,79,23,935,79,2014-08-02T20:10:00,2,20928175,185025
OK,120,15,935,120,2014-08-02T20:15:00,1,20928624,185025
OK,120,15,935,120,2014-08-02T20:20:00,0,20929073,185025
OK,120,15,935,120,2014-08-02T20:25:00,0,20929522,185025
OK,72,25,935,72,2014-08-02T20:30:00,1,20929971,185025
OK,72,25,935,72,2014-08-02T20:35:00,1,20930420,185025
OK,72,25,935,72,2014-08-02T20:40:00,0,20930869,185025
OK,72,25,935,72,2014-08-02T20:45:00,0,20931318,185025
OK,72,25,935,72,2014-08-02T20:50:00,0,20931767,185025
OK,72,25,935,72,2014-08-02T20:55:00,0,20932216,185025
OK,72,25,935,72,2014-08-02T21:00:00,0,20932665,185025
OK,72,25,935,72,2014-08-02T21:05:00,0,20933114,185025
OK,72,25,935,72,2014-08-02T21:10:00,0,20933563,185025
OK,72,25,935,72,2014-08-02T21:15:00,0,20934012,185025
OK,72,25,935,72,2014-08-02T21:20:00,0,20934461,185025
OK,72,25,935,72,2014-08-02T21:25:00,0,20934910,185025
OK,72,25,935,72,2014-08-02T21:30:00,0,20935359,185025
OK,72,25,935,72,2014-08-02T21:35:00,0,20935808,185025
OK,72,25,935,72,2014-08-02T21:40:00,0,20936257,185025
OK,72,25,935,72,2014-08-02T21:45:00,0,20936706,185025
OK,72,25,935,72,2014-08-02T21:50:00,0,20937155,185025
OK,72,25,935,72,2014-08-02T21:55:00,0,20937604,185025
OK,72,25,935,72,2014-08-02T22:00:00,0,20938053,185025
OK,72,25,935,72,2014-08-02T22:05:00,0,20938502,185025
OK,72,25,935,72,2014-08-02T22:10:00,0,20938951,185025
OK,72,25,935,72,2014-08-02T22:15:00,0,20939400,185025
OK,72,25,935,72,2014-08-02T22:20:00,0,20939849,185025
OK,72,25,935,72,2014-08-02T22:25:00,0,20940298,185025
OK,72,25,935,72,2014-08-02T22:30:00,0,20940747,185025
OK,72,25,935,72,2014-08-02T22:35:00,0,20941196,185025
OK,72,25,935,72,2014-08-02T22:40:00,0,20941645,185025
OK,72,25,935,72,2014-08-02T22:45:00,0,20942094,185025
OK,72,25,935,72,2014-08-02T22:50:00,0,20942543,185025
OK,72,25,935,72,2014-08-02T22:55:00,0,20942992,185025
OK,72,25,935,72,2014-08-02T23:00:00,0,20943441,185025
OK,72,25,935,72,2014-08-02T23:10:00,0,20943890,185025
OK,72,25,935,72,2014-08-02T23:15:00,0,20944339,185025
OK,72,25,935,72,2014-08-02T23:20:00,0,20944788,185025
OK,72,25,935,72,2014-08-02T23:25:00,0,20945237,185025
OK,72,25,935,72,2014-08-02T23:30:00,0,20945686,185025
OK,72,25,935,72,2014-08-02T23:35:00,0,20946135,185025
OK,72,25,935,72,2014-08-02T23:40:00,0,20946584,185025
OK,72,25,935,72,2014-08-02T23:45:00,0,20947033,185025
OK,72,25,935,72,2014-08-02T23:50:00,0,20947482,185025
OK,72,25,935,72,2014-08-02T23:55:00,0,20947931,185025
OK,72,25,935,72,2014-08-03T00:00:00,0,20948380,185025
OK,72,25,935,72,2014-08-03T00:05:00,0,20948829,185025
OK,72,25,935,72,2014-08-03T00:10:00,0,20949277,185025
OK,72,25,935,72,2014-08-03T00:15:00,0,20949726,185025
OK,72,25,935,72,2014-08-03T00:20:00,0,20950175,185025
OK,72,25,935,72,2014-08-03T00:25:00,0,20950624,185025
OK,72,25,935,72,2014-08-03T00:30:00,0,20951073,185025
OK,72,25,935,72,2014-08-03T00:35:00,0,20951522,185025
OK,72,25,935,72,2014-08-03T00:40:00,0,20951971,185025
OK,72,25,935,72,2014-08-03T00:45:00,0,20952420,185025
OK,72,25,935,72,2014-08-03T00:50:00,0,20952869,185025
OK,72,25,935,72,2014-08-03T00:55:00,0,20953318,185025
OK,72,25,935,72,2014-08-03T01:00:00,0,20953767,185025
OK,72,25,935,72,2014-08-03T01:05:00,0,20954216,185025
OK,77,23,935,77,2014-08-03T01:10:00,1,20954665,185025
OK,85,21,935,85,2014-08-03T01:15:00,1,20955114,185025
OK,85,21,935,85,2014-08-03T01:20:00,0,20955563,185025
OK,85,21,935,85,2014-08-03T01:25:00,0,20956012,185025
OK,85,21,935,85,2014-08-03T01:30:00,0,20956461,185025
OK,85,21,935,85,2014-08-03T01:35:00,0,20956910,185025
OK,49,37,935,49,2014-08-03T01:40:00,1,20957359,185025
OK,49,37,935,49,2014-08-03T01:45:00,0,20957808,185025
OK,49,37,935,49,2014-08-03T01:50:00,0,20958257,185025
OK,49,37,935,49,2014-08-03T01:55:00,0,20958706,185025
OK,49,37,935,49,2014-08-03T02:00:00,0,20959155,185025